• En España
  • Lista de países
  • Para 7 días
  • Temperatura del agua
  • Mapa Satelital
  • El tiempo en el mapa
  • Informadores
  • user-avatar
    Iniciar sesión

    Tiempo cada hora Namur

    Hoy, 20 Octubre, Sábado

    Tiempo Temperatura Precipitaciones Viento Presión Humedad
    00:00 +8°C° 0 mm 2 mps 759 mmHg 92%
    01:00 +8°C° 0 mm 2 mps 760 mmHg 93%
    02:00 +7°C° 0 mm 2 mps 760 mmHg 93%
    03:00 +7°C° 0 mm 2 mps 760 mmHg 94%
    04:00 +8°C° 0 mm 1 mps 760 mmHg 94%
    05:00 +7°C° 0 mm 1 mps 761 mmHg 94%
    06:00 +7°C° 0 mm 1 mps 761 mmHg 95%
    07:00 +9°C° 0 mm 1 mps 761 mmHg 89%
    08:00 +9°C° 0 mm 2 mps 762 mmHg 83%
    09:00 +12°C° 0 mm 2 mps 762 mmHg 77%
    10:00 +13°C° 0 mm 2 mps 762 mmHg 71%
    11:00 +14°C° 0 mm 2 mps 762 mmHg 64%
    12:00 +16°C° 0 mm 2 mps 762 mmHg 57%
    13:00 +16°C° 0 mm 2 mps 762 mmHg 57%
    14:00 +16°C° 0 mm 2 mps 762 mmHg 58%
    15:00 +16°C° 0 mm 2 mps 762 mmHg 58%
    16:00 +14°C° 0 mm 2 mps 762 mmHg 64%
    17:00 +12°C° 0 mm 2 mps 762 mmHg 70%
    18:00 +10°C° 0 mm 1 mps 762 mmHg 76%
    19:00 +10°C° 0 mm 1 mps 762 mmHg 77%
    20:00 +10°C° 0 mm 1 mps 762 mmHg 77%
    21:00 +9°C° 0 mm 1 mps 762 mmHg 78%
    22:00 +9°C° 0 mm 1 mps 762 mmHg 79%
    23:00 +8°C° 0 mm 1 mps 762 mmHg 80%

    Mañana, 21 Octubre, Domingo

    Tiempo Temperatura Precipitaciones Viento Presión Humedad
    00:00 +8°C° 0 mm 1 mps 762 mmHg 81%
    01:00 +8°C° 0 mm 1 mps 762 mmHg 82%
    02:00 +8°C° 0 mm 1 mps 762 mmHg 82%
    03:00 +6°C° 0 mm 0 mps 761 mmHg 82%
    04:00 +7°C° 0 mm 1 mps 761 mmHg 82%
    05:00 +7°C° 0 mm 1 mps 761 mmHg 82%
    06:00 +7°C° 0 mm 1 mps 761 mmHg 82%
    07:00 +9°C° 0 mm 1 mps 761 mmHg 75%
    08:00 +11°C° 0 mm 1 mps 761 mmHg 69%
    09:00 +13°C° 0 mm 1 mps 761 mmHg 62%
    10:00 +14°C° 0 mm 1 mps 761 mmHg 58%
    11:00 +16°C° 0 mm 1 mps 760 mmHg 55%
    12:00 +18°C° 0 mm 1 mps 760 mmHg 51%
    13:00 +18°C° 0 mm 1 mps 760 mmHg 53%
    14:00 +18°C° 0 mm 1 mps 759 mmHg 55%
    15:00 +18°C° 0 mm 1 mps 759 mmHg 57%
    16:00 +15°C° 0 mm 1 mps 759 mmHg 64%
    17:00 +13°C° 0 mm 1 mps 759 mmHg 71%
    18:00 +11°C° 0 mm 1 mps 759 mmHg 77%
    19:00 +11°C° 0 mm 1 mps 760 mmHg 78%
    20:00 +11°C° 0 mm 1 mps 760 mmHg 80%
    21:00 +10°C° 0 mm 1 mps 760 mmHg 81%
    22:00 +10°C° 0 mm 1 mps 760 mmHg 81%
    23:00 +10°C° 0 mm 1 mps 760 mmHg 82%

    Pasado mañana, 22 Octubre, Lunes

    Tiempo Temperatura Precipitaciones Viento Presión Humedad
    00:00 +9°C° 0 mm 0 mps 760 mmHg 82%
    01:00 +10°C° 0 mm 1 mps 760 mmHg 81%
    02:00 +10°C° 0 mm 1 mps 760 mmHg 81%
    03:00 +10°C° 0 mm 1 mps 760 mmHg 80%
    04:00 +11°C° 0 mm 1 mps 760 mmHg 81%
    05:00 +10°C° 0 mm 2 mps 760 mmHg 81%
    06:00 +10°C° 0 mm 2 mps 761 mmHg 82%
    07:00 +10°C° 0.2 mm 3 mps 761 mmHg 84%
    08:00 +11°C° 0.2 mm 4 mps 762 mmHg 86%
    09:00 +10°C° 0.2 mm 5 mps 762 mmHg 87%
    10:00 +10°C° 0.1 mm 5 mps 763 mmHg 83%
    11:00 +10°C° 0.1 mm 6 mps 763 mmHg 78%
    12:00 +11°C° 0.1 mm 6 mps 763 mmHg 74%
    13:00 +11°C° 0 mm 6 mps 763 mmHg 70%
    14:00 +12°C° 0 mm 5 mps 764 mmHg 67%
    15:00 +12°C° 0 mm 5 mps 764 mmHg 64%
    16:00 +9°C° 0 mm 5 mps 764 mmHg 66%
    17:00 +8°C° 0 mm 4 mps 764 mmHg 68%
    18:00 +8°C° 0 mm 3 mps 765 mmHg 70%
    19:00 +7°C° 0 mm 3 mps 765 mmHg 73%
    20:00 +7°C° 0 mm 2 mps 765 mmHg 76%
    21:00 +6°C° 0 mm 2 mps 765 mmHg 78%
    22:00 +6°C° 0 mm 2 mps 765 mmHg 79%
    23:00 +7°C° 0 mm 1 mps 765 mmHg 80%

    23 Octubre, Martes

    Tiempo Temperatura Precipitaciones Viento Presión Humedad
    00:00 +6°C° 0 mm 1 mps 765 mmHg 80%
    01:00 +7°C° 0 mm 1 mps 765 mmHg 80%
    02:00 +7°C° 0 mm 1 mps 765 mmHg 80%
    03:00 +6°C° 0 mm 2 mps 765 mmHg 81%
    04:00 +6°C° 0 mm 2 mps 764 mmHg 82%
    05:00 +6°C° 0 mm 2 mps 764 mmHg 84%
    06:00 +6°C° 0 mm 2 mps 764 mmHg 86%
    07:00 +8°C° 0 mm 3 mps 764 mmHg 84%
    08:00 +9°C° 0 mm 3 mps 764 mmHg 82%
    09:00 +10°C° 0 mm 4 mps 764 mmHg 80%
    10:00 +11°C° 0 mm 4 mps 763 mmHg 78%
    11:00 +12°C° 0 mm 4 mps 763 mmHg 75%
    12:00 +12°C° 0 mm 4 mps 763 mmHg 73%
    13:00 +12°C° 0 mm 4 mps 762 mmHg 75%
    14:00 +12°C° 0 mm 4 mps 762 mmHg 76%
    15:00 +11°C° 0 mm 4 mps 762 mmHg 78%
    16:00 +11°C° 0 mm 4 mps 762 mmHg 82%
    17:00 +10°C° 0 mm 4 mps 762 mmHg 86%
    18:00 +9°C° 0 mm 3 mps 762 mmHg 89%
    19:00 +10°C° 0 mm 3 mps 762 mmHg 90%
    20:00 +10°C° 0 mm 3 mps 762 mmHg 91%
    21:00 +10°C° 0 mm 4 mps 762 mmHg 91%
    22:00 +10°C° 0 mm 4 mps 761 mmHg 92%
    23:00 +10°C° 0 mm 4 mps 761 mmHg 93%

    24 Octubre, Miércoles

    Tiempo Temperatura Precipitaciones Viento Presión Humedad
    00:00 +10°C° 0 mm 4 mps 761 mmHg 94%
    01:00 +10°C° 0 mm 4 mps 761 mmHg 95%
    02:00 +10°C° 0 mm 3 mps 761 mmHg 95%
    03:00 +10°C° 0 mm 3 mps 761 mmHg 95%
    04:00 +10°C° 0 mm 3 mps 761 mmHg 95%
    05:00 +9°C° 0 mm 3 mps 761 mmHg 95%
    06:00 +9°C° 0 mm 3 mps 761 mmHg 95%
    07:00 +10°C° 0 mm 3 mps 761 mmHg 94%
    08:00 +11°C° 0 mm 3 mps 761 mmHg 92%
    09:00 +12°C° 0 mm 4 mps 761 mmHg 90%
    10:00 +12°C° 0 mm 4 mps 761 mmHg 88%
    11:00 +13°C° 0 mm 3 mps 761 mmHg 86%
    12:00 +14°C° 0 mm 3 mps 761 mmHg 84%
    13:00 +14°C° 0 mm 3 mps 761 mmHg 85%
    14:00 +14°C° 0 mm 3 mps 760 mmHg 85%
    15:00 +14°C° 0 mm 3 mps 760 mmHg 86%
    16:00 +13°C° 0 mm 3 mps 760 mmHg 88%
    17:00 +14°C° 0 mm 2 mps 760 mmHg 91%
    18:00 +13°C° 0 mm 2 mps 760 mmHg 93%
    19:00 +13°C° 0 mm 2 mps 760 mmHg 94%
    20:00 +13°C° 0 mm 2 mps 761 mmHg 94%
    21:00 +13°C° 0 mm 2 mps 761 mmHg 94%
    22:00 +12°C° 0 mm 2 mps 761 mmHg 95%
    23:00 +12°C° 0 mm 2 mps 761 mmHg 95%

    25 Octubre, Jueves

    Tiempo Temperatura Precipitaciones Viento Presión Humedad
    00:00 +10°C° 0 mm 2 mps 760 mmHg 96%
    01:00 +11°C° 0 mm 1 mps 760 mmHg 95%
    02:00 +11°C° 0 mm 1 mps 760 mmHg 95%
    03:00 +10°C° 0 mm 1 mps 760 mmHg 95%
    04:00 +10°C° 0 mm 1 mps 760 mmHg 95%
    05:00 +10°C° 0 mm 1 mps 760 mmHg 95%
    06:00 +10°C° 0 mm 1 mps 760 mmHg 95%
    07:00 +10°C° 0 mm 2 mps 760 mmHg 92%
    08:00 +12°C° 0 mm 2 mps 760 mmHg 89%
    09:00 +13°C° 0 mm 2 mps 760 mmHg 87%
    10:00 +12°C° 0 mm 3 mps 759 mmHg 83%
    11:00 +13°C° 0 mm 3 mps 759 mmHg 80%
    12:00 +13°C° 0 mm 3 mps 759 mmHg 77%
    13:00 +13°C° 0 mm 3 mps 759 mmHg 76%
    14:00 +13°C° 0 mm 3 mps 758 mmHg 75%
    15:00 +13°C° 0 mm 3 mps 758 mmHg 75%
    16:00 +12°C° 0 mm 3 mps 758 mmHg 79%
    17:00 +12°C° 0 mm 2 mps 758 mmHg 84%
    18:00 +10°C° 0 mm 2 mps 758 mmHg 89%
    19:00 +9°C° 0 mm 2 mps 758 mmHg 91%
    20:00 +8°C° 0 mm 2 mps 758 mmHg 93%
    21:00 +8°C° 0 mm 2 mps 758 mmHg 94%
    22:00 +8°C° 0 mm 2 mps 757 mmHg 94%
    23:00 +8°C° 0 mm 2 mps 757 mmHg 93%
    Mostrar más